[[{"header":{"parameterUnit":"m.s-1","parameterCategory":1,"la1":30.2991,"la2":30.254,"lo1":-89.0895,"lo2":-89.0444,"dy":0.0017,"dx":0.0017,"nx":28,"ny":28,"refTime":"2023-09-15T09:00:00:Z","depth":0,"parameterNumber":2,"parameterNumberName":"U-component_of_WINDS"},"data":[0,0,0,0,0,0,0,0,0,0,0,0,0,0,0,0,0,0,0,0,0,0,0,0,0,0,0,0,0,0,0,0,0,0,0,0,0,0,0,0,0,0,0,0,0,0,0,0,0,0,0,0,0,0,0,0,0,0,0.4332,0.4333,0,0.448,0.4482,0.4483,0.4571,0.4572,0.4572,0.4572,0.4727,0.4731,0.4735,0,0,0,0,0,0,0,0,0,0,0,0,0,0.4126,0.413,0.4331,0.4333,0.4335,0.448,0.4482,0.4484,0.4571,0.4572,0.4572,0.4573,0.4726,0.4731,0.4735,0,0,0,0,0,0,0,0,0,0,0,0,0,0.4239,0.4131,0.4331,0.4396,0.4404,0.4479,0.4482,0.4484,0.4571,0.4572,0.4572,0.4573,0.4725,0.473,0.4736,0.4759,0,0,0.4753,0.4755,0,0,0,0,0,0,0,0,0.4233,0.4247,0.4385,0.4392,0.44,0.4508,0.4466,0.4576,0.4571,0.4508,0.4573,0.4573,0.4654,0.4666,0.4692,0.4766,0.4773,0.4754,0.4757,0.4759,0.4761,0,0,0,0,0,0,0,0.4225,0.4241,0.439,0.4387,0.4396,0.4419,0.4435,0.4487,0.4576,0.4513,0.452,0.4536,0.4658,0.4686,0.4696,0.4775,0.4753,0.4758,0.4762,0.4764,0.4876,0.4875,0,0,0,0,0,0,0.4206,0.4234,0.4386,0.4395,0.4316,0.4422,0.4441,0.4473,0.4576,0.4592,0.4535,0.454,0.4677,0.469,0.4702,0.4736,0.4759,0.4765,0.4768,0.4876,0.4876,0.4875,0,0,0,0,0,0,0.4201,0.4219,0.438,0.4316,0.4338,0.4425,0.446,0.4475,0.4504,0.4592,0.4609,0.4548,0.4678,0.4694,0.4744,0.4743,0.4767,0.4772,0.4877,0.4876,0.4875,0.4804,0,0,0,0,0,0,0.4195,0.4217,0.4226,0.4316,0.4341,0.4418,0.446,0.4478,0.4513,0.452,0.4608,0.4624,0.4679,0.4735,0.475,0.4751,0.4777,0.4877,0.4876,0.4875,0.4807,0.4801,0.4796,0,0,0,0,0,0.4187,0.4201,0.4226,0.4244,0.4355,0.4418,0.4433,0.4495,0.4512,0.4523,0.4579,0.4621,0.474,0.4739,0.4757,0.476,0.4877,0.4876,0.4876,0.4809,0.4802,0.4796,0,0,0,0,0,0,0.411,0.4214,0.4243,0.4285,0.4342,0.4432,0.4448,0.4486,0.454,0.4544,0.4621,0.464,0.4682,0.4726,0.4723,0.4787,0.4814,0.4816,0.4757,0.4751,0.4746,0.4735,0.4781,0,0,0,0,0,0.4097,0.4139,0.4228,0.4257,0.4284,0.436,0.439,0.4434,0.4496,0.4521,0.4581,0.4641,0.4692,0.4724,0.4776,0.4813,0.4834,0.4824,0.4818,0.4813,0.4815,0.4837,0.4834,0.4872,0.4872,0.4872,0,0,0.4073,0.4135,0.4157,0.4243,0.4292,0.4334,0.438,0.4423,0.4455,0.4528,0.4578,0.4624,0.4696,0.4739,0.4761,0.4777,0.4808,0.4812,0.4807,0.4812,0.4836,0.4832,0.4829,0.4871,0.4871,0.4871,0,0,0.405,0.41,0.413,0.4178,0.4251,0.4301,0.4308,0.4393,0.4426,0.4477,0.4532,0.4572,0.4658,0.4706,0.4742,0.4735,0.4775,0.475,0.4722,0.4743,0.474,0.4738,0.4735,0.4734,0.4751,0.4751,0.4751,0,0.401,0.4075,0.4141,0.418,0.4216,0.4282,0.4313,0.4356,0.4442,0.4466,0.4482,0.4591,0.4644,0.4699,0.4697,0.4724,0.4734,0.4741,0.4735,0.4734,0.4732,0.4731,0.473,0.4747,0.4748,0.4748,0.4749,0,0.4023,0.4067,0.4082,0.4163,0.4201,0.4235,0.4306,0.4337,0.4377,0.4425,0.4477,0.4542,0.4608,0.4624,0.4664,0.4685,0.4692,0.472,0.4748,0.4724,0.4724,0.4724,0.4742,0.4744,0.4745,0.4746,0,0,0.3956,0.4071,0.4076,0.4113,0.4197,0.4233,0.4271,0.4334,0.4359,0.4416,0.4449,0.452,0.4546,0.4587,0.4632,0.4651,0.4641,0.4677,0.468,0.4668,0.4668,0.4646,0.4644,0.4667,0.4667,0.4668,0.4662,0,0.3946,0.4016,0.4075,0.4123,0.4165,0.4227,0.426,0.4315,0.4362,0.4404,0.4456,0.4505,0.4536,0.456,0.4581,0.4637,0.4642,0.4639,0.47,0.4701,0.468,0.4644,0.4622,0.4613,0.4662,0.4662,0.4662,0,0.3943,0.3996,0.4048,0.4127,0.4147,0.4175,0.4238,0.4277,0.4341,0.4374,0.4418,0.4465,0.4508,0.4531,0.4591,0.4587,0.4616,0.4647,0.4648,0.4657,0.468,0.4652,0.4612,0.461,0.4663,0.4663,0.4663,0,0.3889,0.3973,0.4015,0.4045,0.4139,0.4157,0.4197,0.4262,0.4296,0.435,0.4373,0.4432,0.4465,0.4509,0.4571,0.4582,0.4625,0.4653,0.4653,0.4652,0.466,0.4659,0.4624,0.4677,0.4678,0.4678,0.4678,0,0.3871,0.39,0.3992,0.4018,0.4053,0.412,0.4153,0.4199,0.4255,0.4291,0.4349,0.4382,0.4461,0.4503,0.4552,0.4594,0.4609,0.4636,0.4649,0.4631,0.4628,0.4652,0.4654,0.4677,0.4677,0.4677,0.4677,0,0.3817,0.388,0.393,0.4014,0.4035,0.4057,0.413,0.4157,0.4206,0.4251,0.4265,0.4342,0.4395,0.4461,0.4535,0.4567,0.4604,0.4624,0.4582,0.459,0.4586,0.4586,0.4566,0.4567,0.4619,0.4618,0.4618,0,0.3802,0.3826,0.3912,0.3939,0.3977,0.4021,0.4056,0.4123,0.4157,0.4231,0.4249,0.4306,0.4355,0.4436,0.4499,0.4556,0.4577,0.4566,0.4586,0.4567,0.4577,0.4575,0.4577,0.4561,0.456,0.456,0.4559,0,0.3768,0.3797,0.3844,0.3902,0.3941,0.3989,0.4041,0.406,0.4138,0.4173,0.4227,0.4264,0.4339,0.4395,0.4459,0.4501,0.4543,0.4552,0.4555,0.4538,0.4512,0.4526,0.4569,0.4552,0.4553,0.4553,0.4554,0.4554,0.3733,0.3757,0.3821,0.3871,0.3916,0.3963,0.3992,0.4044,0.409,0.4155,0.4192,0.4244,0.4308,0.4398,0.4438,0.4481,0.4496,0.4501,0.4502,0.4502,0.4497,0.4505,0.4493,0.4493,0.4493,0.4494,0.4494,0,0.3703,0.3746,0.3792,0.3861,0.39,0.3934,0.3993,0.4023,0.4068,0.4123,0.417,0.4231,0.4285,0.4351,0.4409,0.443,0.4451,0.4444,0.4443,0.4452,0.4479,0.4471,0.4426,0.4426,0.4426,0.4426,0.4426,0.4426,0.3691,0.3733,0.377,0.3834,0.3878,0.3929,0.396,0.4002,0.4046,0.4112,0.4156,0.4199,0.4258,0.4321,0.4372,0.439,0.4409,0.4396,0.4419,0.4444,0.445,0.4456,0.4448,0.4399,0.4399,0.4389,0.4388,0.4388]},{"header":{"parameterUnit":"m.s-1","parameterCategory":1,"la1":30.2991,"la2":30.254,"lo1":-89.0895,"lo2":-89.0444,"dy":0.0017,"dx":0.0017,"nx":28,"ny":28,"refTime":"2023-09-15T09:00:00:Z","depth":0,"parameterNumber":3,"parameterNumberName":"V-component_of_WINDS"},"data":[0,0,0,0,0,0,0,0,0,0,0,0,0,0,0,0,0,0,0,0,0,0,0,0,0,0,0,0,0,0,0,0,0,0,0,0,0,0,0,0,0,0,0,0,0,0,0,0,0,0,0,0,0,0,0,0,0,0,2.8504,2.8504,0,2.8514,2.8515,2.8515,2.8541,2.8542,2.8542,2.8543,2.8551,2.8551,2.8551,0,0,0,0,0,0,0,0,0,0,0,0,0,2.8505,2.8505,2.8504,2.8504,2.8505,2.8514,2.8515,2.8515,2.8541,2.8542,2.8542,2.8543,2.8551,2.8551,2.855,0,0,0,0,0,0,0,0,0,0,0,0,0,2.8509,2.8505,2.8504,2.8519,2.852,2.8514,2.8515,2.8515,2.8541,2.8542,2.8542,2.8543,2.8551,2.8551,2.855,2.8531,0,0,2.8549,2.8549,0,0,0,0,0,0,0,0,2.8509,2.8509,2.8517,2.8518,2.8519,2.8527,2.8518,2.852,2.8541,2.8533,2.8543,2.8544,2.8542,2.8543,2.8543,2.8531,2.8531,2.8549,2.8549,2.8549,2.8548,0,0,0,0,0,0,0,2.8509,2.8509,2.8508,2.8517,2.8518,2.8524,2.8526,2.8519,2.8533,2.8534,2.8536,2.8537,2.8543,2.8543,2.8543,2.8531,2.8549,2.8549,2.8548,2.8548,2.8502,2.8502,0,0,0,0,0,0,2.8507,2.8508,2.8508,2.8509,2.8516,2.8523,2.8525,2.8524,2.8533,2.8535,2.8536,2.8538,2.8543,2.8544,2.8543,2.852,2.8549,2.8548,2.8548,2.8503,2.8502,2.8501,0,0,0,0,0,0,2.8506,2.8506,2.8508,2.8509,2.851,2.8523,2.8521,2.8524,2.8524,2.8535,2.8537,2.8533,2.8544,2.8544,2.8533,2.852,2.8548,2.8547,2.8504,2.8503,2.8502,2.8472,0,0,0,0,0,0,2.8506,2.8506,2.8499,2.8509,2.8509,2.8498,2.852,2.8523,2.8523,2.8525,2.8533,2.8535,2.8545,2.8534,2.8533,2.852,2.8547,2.8506,2.8504,2.8502,2.8474,2.847,2.8466,0,0,0,0,0,2.8506,2.849,2.8499,2.8498,2.8501,2.8497,2.8497,2.851,2.8522,2.8514,2.8521,2.8534,2.8522,2.8533,2.8532,2.8518,2.8507,2.8504,2.8502,2.8476,2.8471,2.8466,0,0,0,0,0,0,2.8478,2.8492,2.8501,2.8488,2.8491,2.8502,2.8493,2.8504,2.8504,2.8506,2.8521,2.8523,2.8509,2.8513,2.8525,2.8499,2.8516,2.8514,2.8497,2.8492,2.8488,2.8486,2.8547,0,0,0,0,0,2.8471,2.8467,2.8479,2.8466,2.8467,2.848,2.8478,2.8488,2.8491,2.8493,2.8499,2.8501,2.8498,2.8495,2.8493,2.8476,2.8476,2.8466,2.8462,2.8458,2.8456,2.8445,2.844,2.8494,2.8494,2.8494,0,0,2.8455,2.8462,2.8458,2.846,2.8464,2.8459,2.848,2.8474,2.847,2.8492,2.8481,2.8486,2.849,2.8475,2.8469,2.8478,2.8441,2.8456,2.8453,2.8452,2.8442,2.8437,2.8432,2.8493,2.8493,2.8493,0,0,2.8422,2.8428,2.8417,2.8421,2.8426,2.8434,2.8432,2.844,2.8444,2.8435,2.845,2.8445,2.844,2.8441,2.8441,2.8409,2.842,2.8408,2.8386,2.8375,2.8371,2.8367,2.8354,2.8349,2.8406,2.8405,2.8405,0,2.8401,2.8395,2.841,2.8403,2.8402,2.8423,2.8411,2.8413,2.8417,2.8416,2.8426,2.8419,2.8423,2.8408,2.84,2.84,2.8397,2.8406,2.8371,2.8367,2.8364,2.8351,2.8346,2.8404,2.8404,2.8404,2.8404,0,2.8368,2.8363,2.8354,2.8357,2.8357,2.8347,2.836,2.8357,2.8367,2.8374,2.8363,2.8368,2.8367,2.8364,2.8374,2.835,2.8356,2.8368,2.8385,2.8356,2.8345,2.834,2.8401,2.8402,2.8403,2.8403,0,0,2.8317,2.833,2.8326,2.8327,2.8335,2.8331,2.8322,2.8321,2.8317,2.832,2.8311,2.8306,2.8317,2.8317,2.8327,2.8318,2.829,2.8331,2.8332,2.8322,2.8263,2.8252,2.8246,2.8298,2.8297,2.8297,2.8262,0,2.8286,2.8271,2.8285,2.8267,2.8262,2.8281,2.8273,2.8276,2.8283,2.8278,2.8285,2.828,2.8297,2.8297,2.8289,2.8295,2.8278,2.8298,2.8289,2.8288,2.8286,2.824,2.8229,2.8196,2.8257,2.8257,2.8256,0,2.8246,2.8247,2.8229,2.8237,2.8235,2.8228,2.8227,2.8224,2.8227,2.8232,2.8232,2.8244,2.8235,2.8253,2.8239,2.8253,2.825,2.8252,2.8251,2.825,2.8269,2.8235,2.8186,2.818,2.825,2.825,2.8251,0,2.8209,2.8205,2.8194,2.8195,2.8204,2.8198,2.8202,2.8206,2.8204,2.8204,2.8203,2.8201,2.82,2.8198,2.8208,2.8221,2.8192,2.8212,2.8195,2.8194,2.8187,2.8187,2.8134,2.8188,2.8188,2.8188,2.8188,0,2.8171,2.8159,2.8177,2.817,2.8156,2.8172,2.8158,2.8163,2.8167,2.816,2.8177,2.817,2.8186,2.818,2.8188,2.8175,2.8175,2.8177,2.8179,2.8175,2.8174,2.8172,2.8173,2.8187,2.8187,2.8187,2.8188,0,2.8126,2.8138,2.8127,2.8136,2.8139,2.8128,2.8136,2.8129,2.8137,2.8128,2.8127,2.8138,2.8132,2.8144,2.8139,2.8145,2.8125,2.8132,2.8124,2.8125,2.8106,2.8107,2.8049,2.8041,2.8102,2.8101,2.8101,0,2.81,2.8091,2.81,2.8097,2.81,2.8095,2.8093,2.8108,2.8105,2.8108,2.81,2.8096,2.8093,2.8083,2.809,2.8087,2.8092,2.8072,2.8092,2.8087,2.8089,2.8089,2.8087,2.8067,2.8066,2.8066,2.8065,0,2.8052,2.8058,2.8056,2.8055,2.8052,2.8052,2.8053,2.805,2.8065,2.8061,2.8056,2.8054,2.8049,2.8044,2.8042,2.8045,2.8057,2.8059,2.8055,2.8049,2.8044,2.8045,2.811,2.806,2.8061,2.8061,2.8061,2.8062,2.8014,2.8007,2.8012,2.8008,2.801,2.8011,2.8004,2.8011,2.8007,2.8005,2.8014,2.8006,2.8009,2.8008,2.8009,2.8002,2.8011,2.8005,2.8003,2.8001,2.7997,2.8047,2.8002,2.8002,2.8003,2.8003,2.8003,0,2.7965,2.7969,2.7966,2.7967,2.7964,2.7977,2.7979,2.7974,2.7967,2.797,2.7967,2.796,2.7955,2.7962,2.7958,2.7951,2.7956,2.7949,2.7949,2.7949,2.799,2.7994,2.7945,2.7945,2.7945,2.7945,2.7945,2.7945,2.7939,2.7927,2.7934,2.7922,2.7926,2.7919,2.7919,2.7919,2.792,2.7912,2.7908,2.7913,2.7917,2.7913,2.7909,2.7911,2.7908,2.7898,2.7902,2.794,2.7946,2.7951,2.7954,2.7898,2.7898,2.786,2.786,2.786]}]]